This is the latest recevied weather packets stored in our database for station/object AD8BV. If no packets are shown the sender has not sent any weather packets the latest 10 day(s).
| Time | Temp. | Humidity | Pressure | Rain* | Wind** | Luminosity | Snow |
|---|---|---|---|---|---|---|---|
| 1777663150 | 8.89° C | 61% | 1016.1 hPa | 0 mm | - | 147 W/m² | - |
| 1777662847 | 8.89° C | 58% | 1016.2 hPa | 0 mm | - | 207 W/m² | - |
| 1777662544 | 8.89° C | 59% | 1016 hPa | 0 mm | - | 283 W/m² | - |
| 1777662240 | 8.89° C | 59% | 1016.2 hPa | 0 mm | - | 285 W/m² | - |
| 1777661935 | 8.89° C | 58% | 1015.7 hPa | 0 mm | - | 240 W/m² | - |
| 1777661631 | 8.89° C | 60% | 1015.7 hPa | 0 mm | - | 213 W/m² | - |
| 1777661327 | 8.89° C | 59% | 1015.9 hPa | 0 mm | - | 155 W/m² | - |
| 1777661024 | 8.89° C | 60% | 1015.9 hPa | 0 mm | - | 163 W/m² | - |
| 1777660719 | 9.44° C | 57% | 1015.4 hPa | 0 mm | - | 230 W/m² | - |
| 1777660417 | 8.89° C | 58% | 1015.6 hPa | 0 mm | - | 316 W/m² | - |
| 1777660112 | 8.89° C | 57% | 1015.5 hPa | 0 mm | - | 275 W/m² | - |
| 1777659810 | 9.44° C | 56% | 1015.5 hPa | 0 mm | - | 324 W/m² | - |
| 1777659506 | 9.44° C | 60% | 1015.5 hPa | 0 mm | - | 408 W/m² | - |
| 1777659203 | 9.44° C | 59% | 1015.5 hPa | 0 mm | - | 345 W/m² | - |
| 1777658901 | 8.89° C | 58% | 1015.7 hPa | 0 mm | - | 264 W/m² | - |
| 1777658596 | 8.89° C | 62% | 1015.7 hPa | 0 mm | - | 276 W/m² | - |
| 1777658294 | 8.89° C | 61% | 1015.7 hPa | 0 mm | - | 252 W/m² | - |
| 1777657991 | 8.89° C | 58% | 1015.9 hPa | 0 mm | - | 225 W/m² | - |
| 1777657688 | 8.89° C | 59% | 1015.5 hPa | 0 mm | - | 236 W/m² | - |
| 1777657385 | 8.89° C | 58% | 1015.6 hPa | 0 mm | - | 237 W/m² | - |
| 1777657083 | 8.89° C | 59% | 1015.5 hPa | 0 mm | - | 223 W/m² | - |
| 1777656780 | 8.89° C | 58% | 1015.4 hPa | 0 mm | - | 199 W/m² | - |
| 1777656475 | 9.44° C | 57% | 1015.4 hPa | 0 mm | - | 247 W/m² | - |
| 1777656171 | 9.44° C | 56% | 1015.4 hPa | 0 mm | - | 288 W/m² | - |
| 1777655866 | 9.44° C | 60% | 1015.4 hPa | 0 mm | - | 272 W/m² | - |
* Rain latest hour (hover to see other rain measurements)
** Current wind speed in m/s (hover to see current wind gust speed)